User: anonymous   Login
Location: Unspecified
(0.0000°N, 0.0000°E)
Time: 11:10:11
(UTC+00:00)
Language:

UKube-1 - Orbit

View from above orbital plane
View from above orbital plane
View from above satellite
View from above satellite

Ground track
Ground track

The orbit data is extracted from the following two-line orbital elements,

1 40074U 14037F   18203.55464215  .00000262  00000-0  38813-4 0  9993
2 40074  98.3909 342.6081 0004259 190.5781 169.5346 14.83828626218542
Epoch (UTC): 22 July 2018 13:18:41
Eccentricity: 0.0004259
inclination: 98.3909°
perigee height: 614 km
apogee height: 620 km
right ascension of ascending node: 342.6081°
argument of perigee: 190.5781°
revolutions per day: 14.83828626
mean anomaly at epoch: 169.5346°
orbit number at epoch: 21854

The dashed part of the orbit path shows where the satellite is in the earth's shadow,  

DLR